| time (UTC) | temp F | wind direction | speed MPH | gust MPH | rain 1hr in | rain 24hr in | rain mn in | humidity % | barometer mb |
| 20260906203244 | -18 | 270 | 2.0 | 3.0 | 0.00 | 0.00 | 0.00 | 16 | 5318.5 |
| 20260906203042 | -93 | 270 | 1.0 | 3.0 | 0.00 | 0.00 | 0.00 | 15 | 5318.5 |
| 20260906202442 | 715 | 270 | 0.0 | 2.0 | 0.00 | 0.00 | 0.00 | 14 | 4420.8 |
| 20260906202235 | 170 | 270 | 1.0 | 4.0 | 0.00 | 0.00 | 0.00 | 15 | 5318.5 |
| 20260906202032 | 111 | 270 | 3.0 | 4.0 | 0.00 | 0.00 | 0.00 | 16 | 5318.5 |
| 20260906201829 | 722 | 270 | 2.0 | 3.0 | 0.00 | 0.00 | 0.00 | 15 | 5318.5 |
| 20260906201627 | 166 | 270 | 0.0 | 3.0 | 0.00 | 0.00 | 0.00 | 14 | 403.4 |
| 20260906201425 | 127 | 270 | 1.0 | 3.0 | 0.00 | 0.00 | 0.00 | 14 | 5318.5 |
| 20260906201023 | 182 | 270 | 1.0 | 4.0 | 0.00 | 0.00 | 0.00 | 14 | 4010.3 |
| 20260906200825 | 276 | 270 | 4.0 | 4.0 | 0.00 | 0.00 | 0.00 | 14 | 5318.5 |
| 20260906200415 | -32 | 270 | 1.0 | 1.0 | 0.00 | 0.00 | 0.00 | 14 | 5318.5 |
| 20260906200213 | 293 | 270 | 0.0 | 1.0 | 0.00 | 0.00 | 0.00 | 14 | 5318.5 |
| 20260906200012 | -26 | 270 | 0.0 | 1.0 | 0.00 | 0.00 | 0.00 | 13 | 5318.5 |
| 20260906195607 | -21 | 270 | 1.0 | 3.0 | 0.00 | 0.00 | 0.00 | 13 | 5318.5 |
| 20260906195405 | -25 | 270 | 0.0 | 4.0 | 0.00 | 0.00 | 0.00 | 13 | 5318.5 |
| 20260906195204 | -15 | 270 | 1.0 | 4.0 | 0.00 | 0.00 | 0.00 | 13 | 5318.5 |
| 20260906194354 | 715 | 270 | 1.0 | 3.0 | 0.00 | 0.00 | 0.00 | 12 | 1799.4 |
| 20260906193951 | 78 | 270 | 3.0 | 4.0 | 0.00 | 0.00 | 0.00 | 12 | 5318.5 |
| 20260906193345 | 157 | 270 | 3.0 | 4.0 | 0.00 | 0.00 | 0.00 | 12 | 5318.5 |
| 20260906192940 | 212 | 270 | 2.0 | 5.0 | 0.00 | 0.00 | 0.00 | 12 | 5318.5 |
| 20260906192744 | 173 | 270 | 3.0 | 5.0 | 0.00 | 0.00 | 0.00 | 12 | 5318.5 |
| 20260906192333 | 228 | 270 | 4.0 | 4.0 | 0.00 | 0.00 | 0.00 | 12 | 5318.5 |
| 20260906192133 | 322 | 270 | 2.0 | 5.0 | 0.00 | 0.00 | 0.00 | 11 | 5318.5 |
| 20260906191930 | 715 | 270 | 3.0 | 5.0 | 0.00 | 0.00 | 0.00 | 11 | 4420.6 |
| 20260906190515 | -11 | 270 | 6.0 | 7.0 | 0.00 | 0.00 | 0.00 | 11 | 5318.5 |
| 20260906190313 | 715 | 270 | 5.0 | 7.0 | 0.00 | 0.00 | 0.00 | 12 | 4420.8 |
| 20260906190115 | -56 | 270 | 5.0 | 5.0 | 0.00 | 0.00 | 0.00 | 11 | 5318.5 |
| 20260906185710 | -14 | 270 | 4.0 | 6.0 | 0.00 | 0.00 | 0.00 | 11 | 5318.5 |
| 20260906185107 | 147 | 270 | 3.0 | 3.0 | 0.00 | 0.00 | 0.00 | 11 | 5318.5 |
| 20260906184454 | 164 | 270 | 3.0 | 4.0 | 0.00 | 0.00 | 0.00 | 11 | 5318.5 |
| 20260906184252 | 258 | 270 | 3.0 | 4.0 | 0.00 | 0.00 | 0.00 | 11 | 5318.5 |
| 20260906183852 | 313 | 270 | 4.0 | 5.0 | 0.00 | 0.00 | 0.00 | 11 | 5318.5 |
| 20260906183444 | 49 | 270 | 3.0 | 4.0 | 0.00 | 0.00 | 0.00 | 10 | 5318.5 |
| 20260906183242 | -32 | 270 | 3.0 | 4.0 | 0.00 | 0.00 | 0.00 | 10 | 5318.5 |
| 20260906183040 | -23 | 270 | 3.0 | 3.0 | 0.00 | 0.00 | 0.00 | 10 | 5318.5 |
| 20260906182433 | 49 | 270 | 2.0 | 3.0 | 0.00 | 0.00 | 0.00 | 9 | 5318.5 |
| 20260906182029 | -15 | 270 | 2.0 | 4.0 | 0.00 | 0.00 | 0.00 | 8 | 5318.5 |
| 20260906181625 | -10 | 270 | 2.0 | 4.0 | 0.00 | 0.00 | 0.00 | 8 | 5318.5 |
| 20260906181423 | -10 | 270 | 2.0 | 4.0 | 0.00 | 0.00 | 0.00 | 9 | 5318.5 |
| 20260906181221 | 835 | 270 | 4.0 | 4.0 | 0.00 | 0.00 | 0.00 | 9 | 5318.5 |
| 20260906181025 | 446 | 270 | 3.0 | 4.0 | 0.00 | 0.00 | 0.00 | 9 | 5318.5 |
| 20260906180822 | 138 | 270 | 4.0 | 4.0 | 0.00 | 0.00 | 0.00 | 9 | 5318.5 |
| 20260906180615 | 998 | 270 | 4.0 | 4.0 | 0.00 | 0.00 | 0.00 | 9 | 5318.5 |
| 20260906180413 | 193 | 270 | 3.0 | 4.0 | 0.00 | 0.00 | 0.00 | 9 | 5318.5 |
| 20260906180211 | 155 | 270 | 4.0 | 4.0 | 0.00 | 0.00 | 0.00 | 9 | 5318.5 |
| 20260906175604 | 714 | 270 | 3.0 | 6.0 | 0.00 | 0.00 | 0.00 | 8 | 4420.7 |
| 20260906175402 | 49 | 270 | 4.0 | 6.0 | 0.00 | 0.00 | 0.00 | 8 | 5318.5 |
| 20260906175200 | 49 | 270 | 4.0 | 4.0 | 0.00 | 0.00 | 0.00 | 9 | 5318.5 |
| 20260906174959 | 320 | 270 | 3.0 | 3.0 | 0.00 | 0.00 | 0.00 | 9 | 5318.5 |
| 20260906174554 | -27 | 270 | 4.0 | 8.0 | 0.00 | 0.00 | 0.00 | 8 | 5318.5 |
| 20260906174352 | -18 | 270 | 5.0 | 8.0 | 0.00 | 0.00 | 0.00 | 8 | 5318.5 |
| 20260906173342 | -11 | 270 | 1.0 | 4.0 | 0.00 | 0.00 | 0.00 | 8 | 5318.5 |
| 20260906172938 | 743 | 270 | 4.0 | 7.0 | 0.00 | 0.00 | 0.00 | 8 | 5318.5 |
| 20260906172736 | 32 | 270 | 5.0 | 7.0 | 0.00 | 0.00 | 0.00 | 8 | 5318.5 |
| 20260906172331 | 906 | 270 | 5.0 | 7.0 | 0.00 | 0.00 | 0.00 | 7 | 5318.5 |
| 20260906171526 | 715 | 270 | 3.0 | 7.0 | 0.00 | 0.00 | 0.00 | 7 | 4420.6 |
| 20260906171321 | 295 | 270 | 2.0 | 9.0 | 0.00 | 0.00 | 0.00 | 7 | 5318.5 |
| 20260906171119 | -31 | 270 | 7.0 | 9.0 | 0.00 | 0.00 | 0.00 | 7 | 5318.5 |
| 20260906165306 | -84 | 270 | 6.0 | 10.0 | 0.00 | 0.00 | 0.00 | 6 | 5318.5 |
| 20260906164455 | 262 | 270 | 6.0 | 9.0 | 0.00 | 0.00 | 0.00 | 5 | 5318.5 |
| 20260906164250 | 120 | 270 | 5.0 | 9.0 | 0.00 | 0.00 | 0.00 | 5 | 1714.1 |
| 20260906163441 | 230 | 270 | 5.0 | 12.0 | 0.00 | 0.00 | 0.00 | 4 | 5318.5 |
| 20260906163037 | 285 | 270 | 10.0 | 12.0 | 0.00 | 0.00 | 0.00 | 3 | 5318.5 |
| 20260906162435 | 49 | 270 | 6.0 | 9.0 | 0.00 | 0.00 | 0.00 | 2 | 5318.5 |
| 20260906162235 | -25 | 270 | 9.0 | 9.0 | 0.00 | 0.00 | 0.00 | 2 | 5318.5 |
| 20260906161624 | -24 | 270 | 5.0 | 7.0 | 0.00 | 0.00 | 0.00 | 1 | 5318.5 |
| 20260906161424 | -14 | 270 | 3.0 | 7.0 | 0.00 | 0.00 | 0.00 | 1 | 5318.5 |
| 20260906161222 | -18 | 270 | 7.0 | 7.0 | 0.00 | 0.00 | 0.00 | 1 | 5318.5 |
| 20260906161018 | -93 | 270 | 2.0 | 3.0 | 0.00 | 0.00 | 0.00 | 2 | 5318.5 |
| 20260906160413 | -77 | 270 | 4.0 | 5.0 | 0.00 | 0.00 | 0.00 | 1 | 5318.5 |
| 20260906160209 | 170 | 270 | 4.0 | 5.0 | 0.00 | 0.00 | 0.00 | 100 | 5318.5 |
| 20260906155405 | 127 | 270 | 3.0 | 9.0 | 0.00 | 0.00 | 0.00 | 1 | 5318.5 |
| 20260906155158 | 715 | 270 | 3.0 | 9.0 | 0.00 | 0.00 | 0.00 | 1 | 1799.4 |
| 20260906153948 | -26 | 270 | 6.0 | 11.0 | 0.00 | 0.00 | 0.00 | 1 | 5318.5 |
| 20260906153743 | 715 | 270 | 5.0 | 11.0 | 0.00 | 0.00 | 0.00 | 1 | 1799.3 |
| 20260906153542 | 714 | 270 | 5.0 | 13.0 | 0.00 | 0.00 | 0.00 | 100 | 4420.7 |
| 20260906153340 | 715 | 270 | 5.0 | 13.0 | 0.00 | 0.00 | 0.00 | 15 | 4480.2 |
| 20260906152935 | 715 | 270 | 9.0 | 12.0 | 0.00 | 0.00 | 0.00 | 15 | 1799.3 |
| 20260906152734 | -10 | 270 | 7.0 | 9.0 | 0.00 | 0.00 | 0.00 | 15 | 403.3 |
| 20260906152532 | -14 | 270 | 8.0 | 8.0 | 0.00 | 0.00 | 0.00 | 15 | 5318.5 |
| 20260906152329 | -47 | 270 | 5.0 | 10.0 | 0.00 | 0.00 | 0.00 | 14 | 5318.5 |
| 20260906152127 | 49 | 270 | 5.0 | 10.0 | 0.00 | 0.00 | 0.00 | 15 | 5318.5 |
| 20260906151319 | 715 | 270 | 8.0 | 12.0 | 0.00 | 0.00 | 0.00 | 14 | 1799.4 |
| 20260906151118 | 49 | 270 | 4.0 | 10.0 | 0.00 | 0.00 | 0.00 | 13 | 5318.5 |
| 20260906150713 | 173 | 270 | 6.0 | 8.0 | 0.00 | 0.00 | 0.00 | 12 | 5318.5 |
| 20260906150511 | 267 | 270 | 4.0 | 7.0 | 0.00 | 0.00 | 0.00 | 12 | 5318.5 |
| 20260906145904 | 283 | 270 | 3.0 | 4.0 | 0.00 | 0.00 | 0.00 | 12 | 5318.5 |
| 20260906145702 | -27 | 270 | 4.0 | 7.0 | 0.00 | 0.00 | 0.00 | 11 | 5318.5 |
| 20260906145258 | -22 | 270 | 5.0 | 7.0 | 0.00 | 0.00 | 0.00 | 12 | 5318.5 |
| 20260906145058 | -26 | 270 | 3.0 | 4.0 | 0.00 | 0.00 | 0.00 | 12 | 5318.5 |
| 20260906144450 | -11 | 270 | 4.0 | 7.0 | 0.00 | 0.00 | 0.00 | 12 | 5318.5 |
| 20260906143440 | 715 | 270 | 3.0 | 9.0 | 0.00 | 0.00 | 0.00 | 12 | 1799.4 |
| 20260906143036 | 715 | 270 | 7.0 | 7.0 | 0.00 | 0.00 | 0.00 | 11 | 1799.1 |
| 20260906142227 | 258 | 270 | 7.0 | 10.0 | 0.00 | 0.00 | 0.00 | 12 | 5318.5 |
| 20260906142030 | 715 | 270 | 5.0 | 10.0 | 0.00 | 0.00 | 0.00 | 11 | 4420.8 |
| 20260906141823 | 715 | 270 | 10.0 | 10.0 | 0.00 | 0.00 | 0.00 | 11 | 4420.8 |
| 20260906141621 | -31 | 270 | 8.0 | 10.0 | 0.00 | 0.00 | 0.00 | 12 | 5318.5 |
| 20260906141217 | 49 | 270 | 7.0 | 7.0 | 0.00 | 0.00 | 0.00 | 12 | 5318.5 |
| 20260906141015 | -23 | 270 | 3.0 | 11.0 | 0.00 | 0.00 | 0.00 | 12 | 5318.5 |
| 20260906140817 | -27 | 270 | 3.0 | 11.0 | 0.00 | 0.00 | 0.00 | 12 | 5318.5 |
| 20260906140256 | 109 | 270 | 7.0 | 10.0 | 0.00 | 0.00 | 0.00 | 13 | 5318.5 |
| 20260906140100 | 715 | 270 | 7.0 | 11.0 | 0.00 | 0.00 | 0.00 | 12 | 1799.3 |
| 20260906135858 | 164 | 270 | 8.0 | 11.0 | 0.00 | 0.00 | 0.00 | 13 | 5318.5 |
| 20260906135449 | 714 | 270 | 6.0 | 11.0 | 0.00 | 0.00 | 0.00 | 14 | 4421.0 |
| 20260906135246 | 313 | 270 | 4.0 | 11.0 | 0.00 | 0.00 | 0.00 | 14 | 5318.5 |
| 20260906134842 | -28 | 270 | 9.0 | 11.0 | 0.00 | 0.00 | 0.00 | 14 | 5318.5 |
| 20260906134640 | -32 | 270 | 6.0 | 7.0 | 0.00 | 0.00 | 0.00 | 14 | 5318.5 |
| 20260906134438 | -23 | 270 | 2.0 | 9.0 | 0.00 | 0.00 | 0.00 | 14 | 5318.5 |
| 20260906134034 | 32 | 270 | 2.0 | 13.0 | 0.00 | 0.00 | 0.00 | 14 | 5318.5 |
| 20260906133225 | -65 | 270 | 6.0 | 8.0 | 0.00 | 0.00 | 0.00 | 15 | 5318.5 |
| 20260906132821 | -10 | 270 | 3.0 | 11.0 | 0.00 | 0.00 | 0.00 | 15 | 5318.5 |
| 20260906132417 | 446 | 270 | 5.0 | 9.0 | 0.00 | 0.00 | 0.00 | 15 | 5318.5 |
| 20260906132013 | 998 | 270 | 6.0 | 9.0 | 0.00 | 0.00 | 0.00 | 1 | 5318.5 |
| 20260906131609 | 155 | 270 | 7.0 | 9.0 | 0.00 | 0.00 | 0.00 | 100 | 5318.5 |
| 20260906131008 | 714 | 270 | 4.0 | 8.0 | 0.00 | 0.00 | 0.00 | 1 | 4420.7 |
| 20260906130800 | 265 | 270 | 7.0 | 8.0 | 0.00 | 0.00 | 0.00 | 2 | 5318.5 |
| 20260906130559 | -29 | 270 | 7.0 | 7.0 | 0.00 | 0.00 | 0.00 | 2 | 5318.5 |
| 20260906130357 | -31 | 270 | 4.0 | 7.0 | 0.00 | 0.00 | 0.00 | 2 | 5318.5 |
| 20260906125953 | -27 | 270 | 5.0 | 10.0 | 0.00 | 0.00 | 0.00 | 2 | 5318.5 |
| 20260906125347 | -13 | 270 | 4.0 | 7.0 | 0.00 | 0.00 | 0.00 | 2 | 5318.5 |
| 20260906125144 | -16 | 270 | 4.0 | 7.0 | 0.00 | 0.00 | 0.00 | 3 | 5318.5 |
| 20260906124942 | -75 | 270 | 6.0 | 7.0 | 0.00 | 0.00 | 0.00 | 3 | 5318.5 |
| 20260906123934 | 129 | 270 | 10.0 | 10.0 | 0.00 | 0.00 | 0.00 | 4 | 5318.5 |
| 20260906123326 | 145 | 270 | 2.0 | 9.0 | 0.00 | 0.00 | 0.00 | 4 | 5318.5 |
| 20260906123140 | 239 | 270 | 4.0 | 9.0 | 0.00 | 0.00 | 0.00 | 4 | 5318.5 |
| 20260906121709 | -28 | 270 | 9.0 | 10.0 | 0.00 | 0.00 | 0.00 | 4 | 5318.5 |
| 20260906121103 | -13 | 270 | 4.0 | 8.0 | 0.00 | 0.00 | 0.00 | 4 | 5318.5 |
| 20260906120504 | -12 | 270 | 6.0 | 9.0 | 0.00 | 0.00 | 0.00 | 5 | 5318.5 |
| 20260906120255 | -29 | 270 | 8.0 | 10.0 | 0.00 | 0.00 | 0.00 | 5 | 5318.5 |
| 20260906115850 | 262 | 270 | 10.0 | 10.0 | 0.00 | 0.00 | 0.00 | 5 | 5318.5 |
| 20260906115649 | 120 | 270 | 10.0 | 10.0 | 0.00 | 0.00 | 0.00 | 5 | 5318.5 |
| 20260906115244 | 715 | 270 | 5.0 | 8.0 | 0.00 | 0.00 | 0.00 | 6 | 1799.3 |
| 20260906115044 | 136 | 270 | 3.0 | 9.0 | 0.00 | 0.00 | 0.00 | 5 | 5318.5 |
| 20260906114842 | 230 | 270 | 8.0 | 10.0 | 0.00 | 0.00 | 0.00 | 6 | 5318.5 |
| 20260906114639 | 49 | 270 | 6.0 | 10.0 | 0.00 | 0.00 | 0.00 | 6 | 5318.5 |
| 20260906114436 | -31 | 270 | 4.0 | 9.0 | 0.00 | 0.00 | 0.00 | 6 | 5318.5 |
| 20260906113630 | -25 | 270 | 0.0 | 5.0 | 0.00 | 0.00 | 0.00 | 8 | 5318.5 |
| 20260906113430 | 49 | 270 | 4.0 | 7.0 | 0.00 | 0.00 | 0.00 | 8 | 5318.5 |
| 20260906113224 | -20 | 270 | 5.0 | 7.0 | 0.00 | 0.00 | 0.00 | 8 | 5318.5 |
| 20260906112821 | 49 | 270 | 6.0 | 8.0 | 0.00 | 0.00 | 0.00 | 6 | 5318.5 |
| 20260906112622 | -18 | 270 | 7.0 | 7.0 | 0.00 | 0.00 | 0.00 | 7 | 5318.5 |
| 20260906112416 | -93 | 270 | 6.0 | 7.0 | 0.00 | 0.00 | 0.00 | 8 | 5318.5 |
| 20260906112213 | -13 | 270 | 4.0 | 9.0 | 0.00 | 0.00 | 0.00 | 7 | 5318.5 |
| 20260906112011 | -38 | 270 | 4.0 | 9.0 | 0.00 | 0.00 | 0.00 | 6 | 5318.5 |
| 20260906111811 | 715 | 270 | 7.0 | 8.0 | 0.00 | 0.00 | 0.00 | 7 | 1799.4 |
| 20260906111607 | 715 | 270 | 8.0 | 8.0 | 0.00 | 0.00 | 0.00 | 7 | 4420.9 |
| 20260906111404 | 111 | 270 | 5.0 | 8.0 | 0.00 | 0.00 | 0.00 | 6 | 5318.5 |
| 20260906111204 | 715 | 270 | 6.0 | 8.0 | 0.00 | 0.00 | 0.00 | 7 | 1799.4 |
| 20260906111002 | 166 | 270 | 8.0 | 13.0 | 0.00 | 0.00 | 0.00 | 7 | 5318.5 |
| 20260906110556 | 715 | 270 | 9.0 | 10.0 | 0.00 | 0.00 | 0.00 | 6 | 1799.3 |
| 20260906110153 | 715 | 270 | 8.0 | 9.0 | 0.00 | 0.00 | 0.00 | 6 | 4420.8 |
| 20260906105950 | 237 | 270 | 6.0 | 9.0 | 0.00 | 0.00 | 0.00 | 5 | 5318.5 |
| 20260906105750 | -32 | 270 | 4.0 | 9.0 | 0.00 | 0.00 | 0.00 | 5 | 5318.5 |
| 20260906105345 | -26 | 270 | 6.0 | 7.0 | 0.00 | 0.00 | 0.00 | 5 | 5318.5 |
| 20260906105146 | 715 | 270 | 6.0 | 7.0 | 0.00 | 0.00 | 0.00 | 5 | 4420.7 |
| 20260906104739 | 714 | 270 | 5.0 | 6.0 | 0.00 | 0.00 | 0.00 | 5 | 4420.9 |
| 20260906104537 | -15 | 270 | 3.0 | 9.0 | 0.00 | 0.00 | 0.00 | 5 | 5318.5 |
| 20260906104333 | -19 | 270 | 6.0 | 9.0 | 0.00 | 0.00 | 0.00 | 5 | 5318.5 |
| 20260906104132 | -10 | 270 | 4.0 | 6.0 | 0.00 | 0.00 | 0.00 | 5 | 5318.5 |
| 20260906103929 | -14 | 270 | 4.0 | 6.0 | 0.00 | 0.00 | 0.00 | 5 | 5318.5 |
| 20260906103727 | -47 | 270 | 5.0 | 7.0 | 0.00 | 0.00 | 0.00 | 4 | 5318.5 |
| 20260906103323 | 78 | 270 | 5.0 | 8.0 | 0.00 | 0.00 | 0.00 | 5 | 5318.5 |
| 20260906102717 | 157 | 270 | 5.0 | 7.0 | 0.00 | 0.00 | 0.00 | 5 | 5318.5 |
| 20260906102315 | 212 | 270 | 5.0 | 6.0 | 0.00 | 0.00 | 0.00 | 5 | 5318.5 |
| 20260906101911 | 267 | 270 | 5.0 | 5.0 | 0.00 | 0.00 | 0.00 | 5 | 5318.5 |
| 20260906101507 | 322 | 270 | 3.0 | 5.0 | 0.00 | 0.00 | 0.00 | 5 | 5318.5 |
| 20260906101304 | 283 | 270 | 4.0 | 4.0 | 0.00 | 0.00 | 0.00 | 5 | 5318.5 |
| 20260906101106 | -27 | 270 | 3.0 | 6.0 | 0.00 | 0.00 | 0.00 | 5 | 5318.5 |
| 20260906100701 | 715 | 270 | 4.0 | 6.0 | 0.00 | 0.00 | 0.00 | 5 | 1799.4 |
| 20260906100457 | -26 | 270 | 4.0 | 4.0 | 0.00 | 0.00 | 0.00 | 5 | 5318.5 |
| 20260906100054 | -20 | 270 | 4.0 | 5.0 | 0.00 | 0.00 | 0.00 | 5 | 5318.5 |
| 20260906095446 | -56 | 270 | 0.0 | 4.0 | 0.00 | 0.00 | 0.00 | 6 | 5318.5 |
| 20260906095243 | -95 | 270 | 1.0 | 3.0 | 0.00 | 0.00 | 0.00 | 5 | 5318.5 |
| 20260906094840 | 927 | 270 | 1.0 | 4.0 | 0.00 | 0.00 | 0.00 | 6 | 5318.5 |
| 20260906094641 | 538 | 270 | 3.0 | 5.0 | 0.00 | 0.00 | 0.00 | 6 | 5318.5 |
| 20260906094437 | 147 | 270 | 1.0 | 5.0 | 0.00 | 0.00 | 0.00 | 6 | 5318.5 |
| 20260906094232 | 109 | 270 | 2.0 | 5.0 | 0.00 | 0.00 | 0.00 | 6 | 5318.5 |
| 20260906093423 | 715 | 270 | 5.0 | 5.0 | 0.00 | 0.00 | 0.00 | 6 | 4420.6 |
| 20260906093221 | 313 | 270 | 3.0 | 5.0 | 0.00 | 0.00 | 0.00 | 6 | 5318.5 |
| 20260906093020 | 274 | 270 | 4.0 | 4.0 | 0.00 | 0.00 | 0.00 | 6 | 5318.5 |
| 20260906092821 | -28 | 270 | 1.0 | 4.0 | 0.00 | 0.00 | 0.00 | 6 | 5318.5 |
| 20260906092413 | -31 | 270 | 3.0 | 4.0 | 0.00 | 0.00 | 0.00 | 8 | 5318.5 |
| 20260906092009 | 715 | 270 | 4.0 | 4.0 | 0.00 | 0.00 | 0.00 | 8 | 4420.9 |
| 20260906091808 | -21 | 270 | 3.0 | 3.0 | 0.00 | 0.00 | 0.00 | 8 | 5318.5 |
| 20260906090959 | -10 | 270 | 2.0 | 3.0 | 0.00 | 0.00 | 0.00 | 8 | 5318.5 |
| 20260906090557 | 835 | 270 | 1.0 | 3.0 | 0.00 | 0.00 | 0.00 | 8 | 5318.5 |
| 20260906090352 | 715 | 270 | 0.0 | 3.0 | 0.00 | 0.00 | 0.00 | 8 | 488.7 |
| 20260906090149 | 715 | 270 | 3.0 | 3.0 | 0.00 | 0.00 | 0.00 | 8 | 1799.4 |
| 20260906085843 | 193 | 270 | 2.0 | 4.0 | 0.00 | 0.00 | 0.00 | 8 | 5318.5 |
| 20260906085747 | 193 | 270 | 2.0 | 4.0 | 0.00 | 0.00 | 0.00 | 8 | 5318.5 |
| 20260906085347 | 249 | 270 | 1.0 | 4.0 | 0.00 | 0.00 | 0.00 | 9 | 5318.5 |
| 20260906084937 | 304 | 270 | 3.0 | 4.0 | 0.00 | 0.00 | 0.00 | 9 | 5318.5 |
| 20260906084607 | -29 | 270 | 3.0 | 4.0 | 0.00 | 0.00 | 0.00 | 9 | 5318.5 |
| 20260906084331 | 715 | 270 | 3.0 | 3.0 | 0.00 | 0.00 | 0.00 | 9 | 1799.4 |
| 20260906083929 | -27 | 270 | 2.0 | 4.0 | 0.00 | 0.00 | 0.00 | 9 | 5318.5 |
| 20260906083523 | 715 | 270 | 3.0 | 4.0 | 0.00 | 0.00 | 0.00 | 10 | 1799.4 |
| 20260906083150 | -16 | 270 | 1.0 | 4.0 | 0.00 | 0.00 | 0.00 | 11 | 5318.5 |
| 20260906083119 | -16 | 270 | 1.0 | 4.0 | 0.00 | 0.00 | 0.00 | 11 | 5318.5 |
| 20260906082722 | -11 | 270 | 0.0 | 2.0 | 0.00 | 0.00 | 0.00 | 12 | 5318.5 |
| 20260906082311 | 715 | 270 | 2.0 | 3.0 | 0.00 | 0.00 | 0.00 | 12 | 1799.1 |
| 20260906080656 | 295 | 270 | 1.0 | 2.0 | 0.00 | 0.00 | 0.00 | 13 | 5318.5 |
| 20260906080049 | -31 | 270 | 1.0 | 5.0 | 0.00 | 0.00 | 0.00 | 13 | 5318.5 |
| 20260906075643 | -28 | 270 | 3.0 | 6.0 | 0.00 | 0.00 | 0.00 | 14 | 5318.5 |
| 20260906075244 | -23 | 270 | 1.0 | 5.0 | 0.00 | 0.00 | 0.00 | 15 | 5318.5 |
| 20260906074846 | 715 | 270 | 1.0 | 2.0 | 0.00 | 0.00 | 0.00 | 16 | 1799.4 |
| 20260906074434 | -12 | 270 | 0.0 | 1.0 | 0.00 | 0.00 | 0.00 | 15 | 5318.5 |
| 20260906074233 | 715 | 270 | 0.0 | 1.0 | 0.00 | 0.00 | 0.00 | 16 | 1799.4 |
| 20260906073421 | 814 | 270 | 2.0 | 3.0 | 0.00 | 0.00 | 0.00 | 16 | 5318.5 |
| 20260906072410 | 285 | 270 | 3.0 | 6.0 | 0.00 | 0.00 | 0.00 | 16 | 5318.5 |
| 20260906072209 | 247 | 270 | 1.0 | 4.0 | 0.00 | 0.00 | 0.00 | 16 | 1714.1 |
| 20260906071616 | -25 | 270 | 4.0 | 5.0 | 0.00 | 0.00 | 0.00 | 17 | 5318.5 |
| 20260906071359 | 715 | 270 | 2.0 | 6.0 | 0.00 | 0.00 | 0.00 | 16 | 1799.3 |
| 20260906071158 | 715 | 270 | 4.0 | 6.0 | 0.00 | 0.00 | 0.00 | 16 | 4420.7 |
| 20260906070958 | -24 | 270 | 5.0 | 6.0 | 0.00 | 0.00 | 0.00 | 16 | 5318.5 |
| 20260906070351 | -93 | 270 | 3.0 | 10.0 | 0.00 | 0.00 | 0.00 | 17 | 403.4 |
| 20260906070152 | 715 | 270 | 4.0 | 10.0 | 0.00 | 0.00 | 0.00 | 16 | 1799.1 |
| 20260906065947 | -38 | 270 | 3.0 | 11.0 | 0.00 | 0.00 | 0.00 | 16 | 5318.5 |
| 20260906065744 | -77 | 270 | 6.0 | 11.0 | 0.00 | 0.00 | 0.00 | 16 | 5318.5 |
| 20260906065541 | 715 | 270 | 4.0 | 10.0 | 0.00 | 0.00 | 0.00 | 16 | 4420.6 |
| 20260906065353 | 715 | 270 | 8.0 | 14.0 | 0.00 | 0.00 | 0.00 | 16 | 1799.4 |
| 20260906065140 | 722 | 270 | 4.0 | 14.0 | 0.00 | 0.00 | 0.00 | 16 | 5318.5 |
| 20260906064907 | -11 | 270 | 4.0 | 12.0 | 0.00 | 0.00 | 0.00 | 16 | 5318.5 |
| 20260906064701 | -19 | 270 | 9.0 | 9.0 | 0.00 | 0.00 | 0.00 | 16 | 5318.5 |
| 20260906064257 | 354 | 270 | 7.0 | 13.0 | 0.00 | 0.00 | 0.00 | 16 | 5318.5 |
| 20260906062844 | 715 | 270 | 19.0 | 19.0 | 0.00 | 0.00 | 0.00 | 16 | 4420.8 |
| 20260906062531 | -75 | 270 | 4.0 | 4.0 | 0.00 | 0.00 | 0.00 | 13 | 5318.5 |
| 20260906062326 | -11 | 270 | 3.0 | 3.0 | 0.00 | 0.00 | 0.00 | 13 | 5318.5 |
| 20260906062131 | -86 | 270 | 2.0 | 2.0 | 0.00 | 0.00 | 0.00 | 13 | 5320.2 |
| 20260906061925 | 78 | 270 | 1.0 | 1.0 | 0.00 | 0.00 | 0.00 | 14 | 5318.5 |
| 20260906061316 | 157 | 270 | 2.0 | 5.0 | 0.00 | 0.00 | 0.00 | 14 | 5318.5 |
| 20260906060913 | 212 | 270 | 2.0 | 7.0 | 0.00 | 0.00 | 0.00 | 13 | 5318.5 |
| 20260906060507 | 32 | 270 | 4.0 | 5.0 | 0.00 | 0.00 | 0.00 | 14 | 5320.2 |
| 20260906060310 | 228 | 270 | 4.0 | 5.0 | 0.00 | 0.00 | 0.00 | 14 | 5318.5 |
| 20260906055902 | 283 | 270 | 2.0 | 4.0 | 0.00 | 0.00 | 0.00 | 13 | 403.3 |
| 20260906055659 | -27 | 270 | 3.0 | 3.0 | 0.00 | 0.00 | 0.00 | 14 | 5318.5 |
| 20260906055255 | -22 | 270 | 0.0 | 3.0 | 0.00 | 0.00 | 0.00 | 13 | 5318.5 |
| 20260906055054 | 715 | 270 | 0.0 | 3.0 | 0.00 | 0.00 | 0.00 | 14 | 1799.4 |
| 20260906054651 | -20 | 270 | 3.0 | 3.0 | 0.00 | 0.00 | 0.00 | 14 | 5318.5 |
| 20260906054446 | -11 | 270 | 2.0 | 3.0 | 0.00 | 0.00 | 0.00 | 13 | 5318.5 |
| 20260906054047 | -56 | 270 | 1.0 | 2.0 | 0.00 | 0.00 | 0.00 | 14 | 5318.5 |
| 20260906053638 | -14 | 270 | 1.0 | 3.0 | 0.00 | 0.00 | 0.00 | 13 | 5318.5 |
| 20260906053436 | 715 | 270 | 1.0 | 3.0 | 0.00 | 0.00 | 0.00 | 13 | 1799.4 |
| 20260906052428 | 164 | 270 | 0.0 | 0.0 | 0.00 | 0.00 | 0.00 | 14 | 5318.5 |
| 20260906052224 | 715 | 270 | 0.0 | 0.0 | 0.00 | 0.00 | 0.00 | 14 | 1799.4 |
| 20260906052024 | 219 | 270 | 0.0 | 0.0 | 0.00 | 0.00 | 0.00 | 14 | 5318.5 |
| 20260906051821 | 313 | 270 | 0.0 | 0.0 | 0.00 | 0.00 | 0.00 | 14 | 403.4 |
| 20260906051416 | 715 | 270 | 0.0 | 1.0 | 0.00 | 0.00 | 0.00 | 14 | 4420.6 |
| 20260906051110 | 715 | 270 | 0.0 | 0.0 | 0.00 | 0.00 | 0.00 | 14 | 4421.0 |
| 20260906051105 | -17 | 270 | 0.0 | 1.0 | 0.00 | 0.00 | 0.00 | 14 | 5318.5 |
| 20260906051037 | 715 | 270 | 0.0 | 0.0 | 0.00 | 0.00 | 0.00 | 14 | 4421.0 |
| 20260906051027 | -17 | 270 | 0.0 | 1.0 | 0.00 | 0.00 | 0.00 | 14 | 5318.5 |
| 20260906050407 | -21 | 270 | 0.0 | 1.0 | 0.00 | 0.00 | 0.00 | 15 | 5318.5 |
| 20260906044348 | 193 | 270 | 2.0 | 3.0 | 0.00 | 0.00 | 0.00 | 16 | 5318.5 |
| 20260906043139 | -29 | 270 | 2.0 | 2.0 | 0.00 | 0.00 | 0.00 | 16 | 5318.5 |
| 20260906040304 | 715 | 270 | 3.0 | 4.0 | 0.00 | 0.00 | 0.00 | 16 | 1799.4 |
| 20260906035658 | 239 | 270 | 4.0 | 7.0 | 0.00 | 0.00 | 0.00 | 17 | 5318.5 |
| 20260906035455 | -31 | 270 | 3.0 | 7.0 | 0.00 | 0.00 | 0.00 | 17 | 5318.5 |
| 20260906035125 | 715 | 270 | 3.0 | 6.0 | 0.00 | 0.00 | 0.00 | 18 | 1799.4 |
| 20260906035051 | 715 | 270 | 3.0 | 6.0 | 0.00 | 0.00 | 0.00 | 18 | 1799.4 |
| 20260906034648 | 311 | 270 | 2.0 | 2.0 | 0.00 | 0.00 | 0.00 | 18 | 5318.5 |
| 20260906034445 | -24 | 270 | 1.0 | 2.0 | 0.00 | 0.00 | 0.00 | 19 | 5318.5 |
| 20260906034043 | -19 | 270 | 0.0 | 0.0 | 0.00 | 0.00 | 0.00 | 20 | 5318.5 |
| 20260906033435 | -17 | 270 | 1.0 | 3.0 | 0.00 | 0.00 | 0.00 | 19 | 5318.5 |
| 20260906033032 | -12 | 270 | 2.0 | 3.0 | 0.00 | 0.00 | 0.00 | 20 | 5318.5 |
| 20260906032830 | -29 | 270 | 2.0 | 3.0 | 0.00 | 0.00 | 0.00 | 20 | 5318.5 |
| 20260906031414 | 230 | 270 | 3.0 | 3.0 | 0.00 | 0.00 | 0.00 | 21 | 5318.5 |
| 20260906031214 | 191 | 270 | 2.0 | 3.0 | 0.00 | 0.00 | 0.00 | 21 | 5318.5 |
| 20260906030610 | -31 | 270 | 3.0 | 3.0 | 0.00 | 0.00 | 0.00 | 21 | 5318.5 |
| 20260906025353 | 715 | 270 | 4.0 | 4.0 | 0.00 | 0.00 | 0.00 | 22 | 1799.3 |
| 20260906025152 | -18 | 270 | 3.0 | 4.0 | 0.00 | 0.00 | 0.00 | 22 | 5318.5 |
| 20260906024949 | -31 | 270 | 3.0 | 4.0 | 0.00 | 0.00 | 0.00 | 22 | 5318.5 |
| 20260906024748 | -13 | 270 | 3.0 | 4.0 | 0.00 | 0.00 | 0.00 | 22 | 5318.5 |
| 20260906024142 | 170 | 270 | 4.0 | 5.0 | 0.00 | 0.00 | 0.00 | 22 | 5318.5 |
| 20260906023535 | 166 | 270 | 3.0 | 3.0 | 0.00 | 0.00 | 0.00 | 22 | 5318.5 |
| 20260906023334 | 127 | 270 | 1.0 | 3.0 | 0.00 | 0.00 | 0.00 | 21 | 5318.5 |
| 20260906022935 | 182 | 270 | 2.0 | 2.0 | 0.00 | 0.00 | 0.00 | 21 | 5318.5 |
| 20260906022726 | 32 | 270 | 2.0 | 3.0 | 0.00 | 0.00 | 0.00 | 21 | 5318.5 |
| 20260906021918 | -26 | 270 | 2.0 | 4.0 | 0.00 | 0.00 | 0.00 | 22 | 5318.5 |
| 20260906021110 | 49 | 270 | 2.0 | 3.0 | 0.00 | 0.00 | 0.00 | 22 | 5318.5 |
| 20260906020910 | -19 | 270 | 2.0 | 3.0 | 0.00 | 0.00 | 0.00 | 23 | 5318.5 |
| 20260906020705 | -10 | 270 | 3.0 | 3.0 | 0.00 | 0.00 | 0.00 | 23 | 403.4 |
| 20260906020506 | -14 | 270 | 3.0 | 4.0 | 0.00 | 0.00 | 0.00 | 23 | 5318.5 |
| 20260906020301 | -47 | 270 | 3.0 | 4.0 | 0.00 | 0.00 | 0.00 | 23 | 5318.5 |
| 20260906015655 | 101 | 270 | 3.0 | 3.0 | 0.00 | 0.00 | 0.00 | 22 | 5318.5 |
| 20260906014914 | 212 | 270 | 1.0 | 3.0 | 0.00 | 0.00 | 0.00 | 22 | 5318.5 |
| 20260906014645 | 715 | 270 | 2.0 | 3.0 | 0.00 | 0.00 | 0.00 | 22 | 1799.3 |
| 20260906014240 | 228 | 270 | 0.0 | 1.0 | 0.00 | 0.00 | 0.00 | 21 | 5318.5 |
| 20260906014039 | 715 | 270 | 0.0 | 1.0 | 0.00 | 0.00 | 0.00 | 21 | 1799.4 |
| 20260906013634 | -27 | 270 | 0.0 | 1.0 | 0.00 | 0.00 | 0.00 | 21 | 5318.5 |
| 20260906013433 | -31 | 270 | 0.0 | 1.0 | 0.00 | 0.00 | 0.00 | 21 | 5318.5 |
| 20260906013232 | 715 | 270 | 0.0 | 0.0 | 0.00 | 0.00 | 0.00 | 21 | 488.7 |
| 20260906012828 | -16 | 270 | 0.0 | 0.0 | 0.00 | 0.00 | 0.00 | 21 | 5318.5 |
| 20260906012624 | 715 | 270 | 0.0 | 0.0 | 0.00 | 0.00 | 0.00 | 21 | 4420.8 |
| 20260906012423 | -11 | 270 | 0.0 | 3.0 | 0.00 | 0.00 | 0.00 | 20 | 5318.5 |
| 20260906012220 | -15 | 270 | 0.0 | 3.0 | 0.00 | 0.00 | 0.00 | 20 | 5318.5 |
| 20260906011614 | 715 | 270 | 1.0 | 1.0 | 0.00 | 0.00 | 0.00 | 20 | 1799.3 |
| 20260906011412 | 927 | 270 | 0.0 | 2.0 | 0.00 | 0.00 | 0.00 | 19 | 5318.5 |
| 20260906011210 | 538 | 270 | 1.0 | 2.0 | 0.00 | 0.00 | 0.00 | 19 | 5318.5 |
| 20260906010607 | 203 | 270 | 0.0 | 0.0 | 0.00 | 0.00 | 0.00 | 20 | 5318.5 |
| 20260906010159 | 258 | 270 | 0.0 | 0.0 | 0.00 | 0.00 | 0.00 | 19 | 5318.5 |
| 20260906005350 | -28 | 270 | 0.0 | 0.0 | 0.00 | 0.00 | 0.00 | 18 | 5318.5 |
| 20260906005149 | -32 | 270 | 0.0 | 0.0 | 0.00 | 0.00 | 0.00 | 18 | 5318.5 |
| 20260906004946 | -23 | 270 | 0.0 | 0.0 | 0.00 | 0.00 | 0.00 | 18 | 5318.5 |
| 20260906004746 | -27 | 270 | 0.0 | 0.0 | 0.00 | 0.00 | 0.00 | 18 | 5318.5 |
| 20260906004342 | -21 | 270 | 0.0 | 1.0 | 0.00 | 0.00 | 0.00 | 18 | 5318.5 |
| 20260906003533 | 714 | 270 | 0.0 | 1.0 | 0.00 | 0.00 | 0.00 | 18 | 4420.7 |
| 20260906003422 | -10 | 270 | 0.0 | 1.0 | 0.00 | 0.00 | 0.00 | 18 | 5318.5 |
| 20260906003340 | -10 | 270 | 0.0 | 1.0 | 0.00 | 0.00 | 0.00 | 18 | 5318.5 |
| 20260906003128 | 835 | 270 | 1.0 | 1.0 | 0.00 | 0.00 | 0.00 | 18 | 5321.1 |
| 20260906002726 | 138 | 270 | 1.0 | 2.0 | 0.00 | 0.00 | 0.00 | 17 | 5318.5 |
| 20260906001916 | 715 | 270 | 0.0 | 2.0 | 0.00 | 0.00 | 0.00 | 17 | 1799.4 |
| 20260905235904 | -13 | 270 | 2.0 | 2.0 | 0.00 | 0.00 | 0.00 | 17 | 5318.5 |
| 20260905235653 | -16 | 270 | 1.0 | 2.0 | 0.00 | 0.00 | 0.00 | 17 | 5318.5 |
| 20260905232018 | 715 | 270 | 2.0 | 3.0 | 0.00 | 0.00 | 0.00 | 19 | 4420.7 |
| 20260905231615 | -13 | 270 | 4.0 | 4.0 | 0.00 | 0.00 | 0.00 | 18 | 5318.5 |
| 20260905231209 | -84 | 270 | 3.0 | 3.0 | 0.00 | 0.00 | 0.00 | 18 | 5318.5 |
| 20260905230607 | -67 | 270 | 0.0 | 0.0 | 0.00 | 0.00 | 0.00 | 17 | 5318.5 |
| 20260905230359 | 49 | 270 | 0.0 | 2.0 | 0.00 | 0.00 | 0.00 | 18 | 5318.5 |
| 20260905225557 | 136 | 270 | 0.0 | 1.0 | 0.00 | 0.00 | 0.00 | 18 | 5318.5 |
| 20260905225349 | 230 | 270 | 1.0 | 1.0 | 0.00 | 0.00 | 0.00 | 18 | 5318.5 |
| 20260905225146 | 191 | 270 | 0.0 | 2.0 | 0.00 | 0.00 | 0.00 | 18 | 5318.5 |
| 20260905224947 | 715 | 270 | 1.0 | 2.0 | 0.00 | 0.00 | 0.00 | 19 | 1799.4 |
| 20260905224746 | 247 | 270 | 2.0 | 2.0 | 0.00 | 0.00 | 0.00 | 19 | 5318.5 |
| 20260905224342 | 302 | 270 | 0.0 | 0.0 | 0.00 | 0.00 | 0.00 | 19 | 5318.5 |
| 20260905224144 | -25 | 270 | 0.0 | 1.0 | 0.00 | 0.00 | 0.00 | 19 | 5318.5 |
| 20260905223935 | -29 | 270 | 0.0 | 3.0 | 0.00 | 0.00 | 0.00 | 19 | 5318.5 |
| 20260905223329 | -14 | 270 | 4.0 | 4.0 | 0.00 | 0.00 | 0.00 | 20 | 5318.5 |
| 20260905223134 | -18 | 270 | 3.0 | 6.0 | 0.00 | 0.00 | 0.00 | 20 | 5318.5 |
| 20260905222924 | -93 | 270 | 4.0 | 6.0 | 0.00 | 0.00 | 0.00 | 20 | 5318.5 |
| 20260905222322 | 715 | 270 | 1.0 | 1.0 | 0.00 | 0.00 | 0.00 | 19 | 4420.8 |
| 20260905221914 | 111 | 270 | 0.0 | 1.0 | 0.00 | 0.00 | 0.00 | 19 | 5318.5 |
| 20260905221733 | 722 | 270 | 0.0 | 1.0 | 0.00 | 0.00 | 0.00 | 18 | 5318.5 |
| 20260905221509 | 166 | 270 | 0.0 | 1.0 | 0.00 | 0.00 | 0.00 | 19 | 4010.3 |
| 20260905221307 | 127 | 270 | 0.0 | 2.0 | 0.00 | 0.00 | 0.00 | 19 | 5318.5 |
| 20260905221107 | 221 | 270 | 0.0 | 6.0 | 0.00 | 0.00 | 0.00 | 19 | 5318.5 |
| 20260905220257 | 715 | 270 | 4.0 | 10.0 | 0.00 | 0.00 | 0.00 | 18 | 1799.4 |
| 20260905214843 | -19 | 270 | 5.0 | 7.0 | 0.00 | 0.00 | 0.00 | 19 | 5318.5 |
| 20260905214640 | -10 | 270 | 5.0 | 9.0 | 0.00 | 0.00 | 0.00 | 20 | 5318.5 |
| 20260905214438 | -14 | 270 | 5.0 | 9.0 | 0.00 | 0.00 | 0.00 | 20 | 5318.5 |
| 20260905214236 | -47 | 270 | 8.0 | 9.0 | 0.00 | 0.00 | 0.00 | 20 | 5318.5 |
| 20260905213428 | 630 | 270 | 7.0 | 7.0 | 0.00 | 0.00 | 0.00 | 22 | 5318.5 |
| 20260905213226 | 157 | 270 | 6.0 | 7.0 | 0.00 | 0.00 | 0.00 | 22 | 5318.5 |
| 20260905213025 | 118 | 270 | 4.0 | 5.0 | 0.00 | 0.00 | 0.00 | 22 | 5318.5 |
| 20260905212418 | 267 | 270 | 3.0 | 5.0 | 0.00 | 0.00 | 0.00 | 22 | 5318.5 |
| 20260905212229 | 228 | 270 | 4.0 | 6.0 | 0.00 | 0.00 | 0.00 | 22 | 5318.5 |
| 20260905211407 | 715 | 270 | 4.0 | 4.0 | 0.00 | 0.00 | 0.00 | 23 | 4420.8 |
| 20260905211207 | -22 | 270 | 3.0 | 3.0 | 0.00 | 0.00 | 0.00 | 23 | 5318.5 |
| 20260905211012 | -26 | 270 | 2.0 | 3.0 | 0.00 | 0.00 | 0.00 | 23 | 5318.5 |
| 20260905210357 | -11 | 270 | 2.0 | 3.0 | 0.00 | 0.00 | 0.00 | 23 | 4010.3 |
| 20260905210155 | 715 | 270 | 2.0 | 3.0 | 0.00 | 0.00 | 0.00 | 22 | 1799.3 |
| 20260905205350 | 697 | 270 | 3.0 | 4.0 | 0.00 | 0.00 | 0.00 | 22 | 5318.5 |
| 20260905204537 | 180 | 270 | 3.0 | 3.0 | 0.00 | 0.00 | 0.00 | 22 | 5318.5 |
| 20260905204334 | 715 | 270 | 2.0 | 2.0 | 0.00 | 0.00 | 0.00 | 22 | 1799.3 |
| 20260905203931 | 196 | 270 | 1.0 | 1.0 | 0.00 | 0.00 | 0.00 | 22 | 5318.5 |